Time,TemperatureF,DewpointF,PressureIn,WindDirection,WindDirectionDegrees,WindSpeedMPH,WindSpeedGustMPH,Humidity,HourlyPrecipIn,Conditions,Clouds,dailyrainin,SoftwareType,DateUTC
2013-05-05 00:00:00,47.3,46.0,29.98,SSE,150,0.0,0.0,94,0.00,,,0.31,weatherlink.com 1.10,2013-05-05 05:00:00,
2013-05-05 00:15:00,47.4,46.0,29.99,SSE,150,0.0,1.0,95,0.00,,,0.00,weatherlink.com 1.10,2013-05-05 05:15:00,
2013-05-05 00:30:00,47.5,46.0,29.98,North,360,1.0,4.0,95,0.00,,,0.00,weatherlink.com 1.10,2013-05-05 05:30:00,
2013-05-05 00:46:00,47.4,46.0,29.97,North,360,0.0,3.0,95,0.00,,,0.00,weatherlink.com 1.10,2013-05-05 05:46:00,
2013-05-05 01:01:00,47.4,46.0,29.97,North,360,2.0,5.0,95,0.00,,,0.00,weatherlink.com 1.10,2013-05-05 06:01:00,
2013-05-05 01:16:00,47.2,46.0,29.96,North,355,3.0,6.0,94,0.00,,,0.00,weatherlink.com 1.10,2013-05-05 06:16:00,
2013-05-05 01:31:00,47.1,46.0,29.95,NNW,348,3.0,7.0,94,0.00,,,0.00,weatherlink.com 1.10,2013-05-05 06:31:00,
2013-05-05 01:46:00,47.3,46.0,29.95,NW,326,4.0,6.0,94,0.00,,,0.00,weatherlink.com 1.10,2013-05-05 06:46:00,
2013-05-05 02:01:00,47.4,46.0,29.95,NNW,327,1.0,5.0,94,0.00,,,0.00,weatherlink.com 1.10,2013-05-05 07:01:00,
2013-05-05 02:16:00,47.3,46.0,29.95,NNW,327,0.0,4.0,94,0.00,,,0.00,weatherlink.com 1.10,2013-05-05 07:16:00,
2013-05-05 02:31:00,47.1,45.0,29.93,NNW,327,2.0,4.0,93,0.00,,,0.00,weatherlink.com 1.10,2013-05-05 07:31:00,
2013-05-05 02:46:00,46.9,45.0,29.93,NNW,327,2.0,4.0,93,0.00,,,0.00,weatherlink.com 1.10,2013-05-05 07:46:00,
2013-05-05 03:01:00,46.8,45.0,29.93,NNW,327,0.0,4.0,93,0.00,,,0.00,weatherlink.com 1.10,2013-05-05 08:01:00,
2013-05-05 03:16:00,47.0,45.0,29.93,NNW,327,3.0,5.0,93,0.00,,,0.00,weatherlink.com 1.10,2013-05-05 08:16:00,
2013-05-05 03:31:00,47.2,45.0,29.93,NNW,327,3.0,4.0,93,0.00,,,0.00,weatherlink.com 1.10,2013-05-05 08:31:00,
2013-05-05 03:46:00,47.2,45.0,29.93,NNW,328,3.0,5.0,93,0.00,,,0.00,weatherlink.com 1.10,2013-05-05 08:46:00,
2013-05-05 04:01:00,47.1,46.0,29.93,NNW,333,3.0,6.0,94,0.01,,,0.01,weatherlink.com 1.10,2013-05-05 09:01:00,
2013-05-05 04:16:00,47.1,46.0,29.93,NNW,333,3.0,6.0,94,0.02,,,0.02,weatherlink.com 1.10,2013-05-05 09:16:00,
2013-05-05 04:31:00,47.3,46.0,29.92,NNW,333,4.0,4.0,95,0.03,,,0.03,weatherlink.com 1.10,2013-05-05 09:31:00,
2013-05-05 04:46:00,47.4,46.0,29.91,NNW,333,5.0,5.0,95,0.03,,,0.03,weatherlink.com 1.10,2013-05-05 09:46:00,
2013-05-05 05:01:00,47.7,47.0,29.91,NNW,333,4.0,7.0,96,0.03,,,0.04,weatherlink.com 1.10,2013-05-05 10:01:00,
2013-05-05 05:16:00,47.8,47.0,29.91,NNW,332,6.0,8.0,95,0.03,,,0.05,weatherlink.com 1.10,2013-05-05 10:16:00,
2013-05-05 05:31:00,48.1,47.0,29.91,NW,323,7.0,8.0,95,0.04,,,0.07,weatherlink.com 1.10,2013-05-05 10:31:00,
2013-05-05 05:46:00,47.9,47.0,29.91,NW,325,7.0,8.0,95,0.09,,,0.12,weatherlink.com 1.10,2013-05-05 10:46:00,
2013-05-05 06:01:00,48.0,47.0,29.91,NW,314,3.0,7.0,96,0.14,,,0.18,weatherlink.com 1.10,2013-05-05 11:01:00,
2013-05-05 06:16:00,48.0,47.0,29.91,NNW,331,4.0,8.0,96,0.16,,,0.21,weatherlink.com 1.10,2013-05-05 11:16:00,
2013-05-05 06:31:00,48.3,47.0,29.90,NNW,331,6.0,8.0,96,0.17,,,0.24,weatherlink.com 1.10,2013-05-05 11:31:00,
2013-05-05 06:46:00,48.6,48.0,29.91,NNW,346,2.0,7.0,96,0.13,,,0.26,weatherlink.com 1.10,2013-05-05 11:46:00,
2013-05-05 07:01:00,48.8,48.0,29.91,NNW,346,0.0,3.0,96,0.12,,,0.30,weatherlink.com 1.10,2013-05-05 12:01:00,
2013-05-05 07:16:00,49.0,48.0,29.90,NNW,346,2.0,4.0,96,0.11,,,0.32,weatherlink.com 1.10,2013-05-05 12:16:00,
2013-05-05 07:31:00,48.9,48.0,29.90,NNW,346,2.0,4.0,96,0.09,,,0.33,weatherlink.com 1.10,2013-05-05 12:31:00,
2013-05-05 07:46:00,49.2,48.0,29.89,NNW,346,3.0,4.0,96,0.09,,,0.35,weatherlink.com 1.10,2013-05-05 12:46:00,
2013-05-05 08:01:00,49.9,49.0,29.89,NNW,346,2.0,4.0,96,0.05,,,0.35,weatherlink.com 1.10,2013-05-05 13:01:00,
2013-05-05 08:16:00,50.6,50.0,29.89,NNW,346,3.0,4.0,97,0.05,,,0.37,weatherlink.com 1.10,2013-05-05 13:16:00,
2013-05-05 08:31:00,51.2,50.0,29.89,NNW,346,3.0,4.0,96,0.06,,,0.39,weatherlink.com 1.10,2013-05-05 13:31:00,
2013-05-05 08:46:00,52.1,51.0,29.89,NNW,338,0.0,6.0,97,0.06,,,0.41,weatherlink.com 1.10,2013-05-05 13:46:00,
2013-05-05 09:01:00,52.8,52.0,29.88,NNW,339,6.0,6.0,97,0.07,,,0.43,weatherlink.com 1.10,2013-05-05 14:01:00,
2013-05-05 09:16:00,53.2,52.0,29.88,NNW,339,1.0,5.0,97,0.08,,,0.45,weatherlink.com 1.10,2013-05-05 14:16:00,
2013-05-05 09:32:00,53.5,53.0,29.88,NNW,331,1.0,6.0,97,0.07,,,0.46,weatherlink.com 1.10,2013-05-05 14:32:00,
2013-05-05 09:47:00,54.1,53.0,29.88,North,355,5.0,10.0,97,0.06,,,0.47,weatherlink.com 1.10,2013-05-05 14:47:00,
2013-05-05 10:02:00,54.8,54.0,29.87,NE,36,5.0,6.0,96,0.04,,,0.47,weatherlink.com 1.10,2013-05-05 15:02:00,
2013-05-05 10:17:00,55.1,54.0,29.88,North,360,2.0,6.0,96,0.03,,,0.48,weatherlink.com 1.10,2013-05-05 15:17:00,
2013-05-05 10:32:00,55.5,54.0,29.88,NNE,20,4.0,9.0,96,0.03,,,0.49,weatherlink.com 1.10,2013-05-05 15:32:00,
2013-05-05 10:47:00,55.7,54.0,29.88,North,10,3.0,7.0,95,0.02,,,0.49,weatherlink.com 1.10,2013-05-05 15:47:00,
2013-05-05 11:02:00,55.6,54.0,29.88,North,11,0.0,6.0,95,0.02,,,0.49,weatherlink.com 1.10,2013-05-05 16:02:00,
2013-05-05 11:17:00,55.9,55.0,29.88,North,5,2.0,7.0,95,0.01,,,0.49,weatherlink.com 1.10,2013-05-05 16:17:00,
2013-05-05 11:32:00,56.6,55.0,29.88,NNE,14,1.0,10.0,95,0.00,,,0.49,weatherlink.com 1.10,2013-05-05 16:32:00,
2013-05-05 11:47:00,56.6,55.0,29.88,North,5,2.0,10.0,94,0.01,,,0.50,weatherlink.com 1.10,2013-05-05 16:47:00,
2013-05-05 12:02:00,56.7,55.0,29.87,North,360,3.0,7.0,94,0.01,,,0.50,weatherlink.com 1.10,2013-05-05 17:02:00,
2013-05-05 12:17:00,57.1,55.0,29.87,NE,38,2.0,9.0,93,0.01,,,0.50,weatherlink.com 1.10,2013-05-05 17:17:00,
2013-05-05 12:32:00,57.0,55.0,29.87,NNE,14,2.0,7.0,92,0.01,,,0.50,weatherlink.com 1.10,2013-05-05 17:32:00,
2013-05-05 12:47:00,56.9,55.0,29.86,NNE,13,2.0,5.0,93,0.00,,,0.50,weatherlink.com 1.10,2013-05-05 17:47:00,
2013-05-05 13:02:00,56.9,55.0,29.86,NE,41,4.0,8.0,93,0.00,,,0.50,weatherlink.com 1.10,2013-05-05 18:02:00,
2013-05-05 13:17:00,56.7,55.0,29.86,NE,53,1.0,7.0,94,0.00,,,0.50,weatherlink.com 1.10,2013-05-05 18:17:00,
2013-05-05 13:32:00,57.1,55.0,29.86,North,355,0.0,4.0,94,0.00,,,0.50,weatherlink.com 1.10,2013-05-05 18:32:00,
2013-05-05 13:47:00,57.6,56.0,29.86,NNE,19,3.0,5.0,94,0.00,,,0.50,weatherlink.com 1.10,2013-05-05 18:47:00,
2013-05-05 14:02:00,57.6,56.0,29.86,ENE,74,3.0,4.0,93,0.00,,,0.50,weatherlink.com 1.10,2013-05-05 19:02:00,
2013-05-05 14:17:00,56.0,54.0,29.87,ENE,74,1.0,3.0,93,0.01,,,0.51,weatherlink.com 1.10,2013-05-05 19:17:00,
2013-05-05 14:32:00,56.0,54.0,29.86,ENE,74,0.0,2.0,94,0.01,,,0.51,weatherlink.com 1.10,2013-05-05 19:32:00,
2013-05-05 14:47:00,56.4,55.0,29.86,North,355,0.0,1.0,95,0.01,,,0.51,weatherlink.com 1.10,2013-05-05 19:47:00,
2013-05-05 15:02:00,57.5,56.0,29.86,North,355,0.0,2.0,95,0.01,,,0.51,weatherlink.com 1.10,2013-05-05 20:02:00,
2013-05-05 15:17:00,58.5,57.0,29.85,North,355,0.0,2.0,94,0.00,,,0.51,weatherlink.com 1.10,2013-05-05 20:17:00,
2013-05-05 15:32:00,58.7,57.0,29.85,North,355,0.0,2.0,93,0.00,,,0.51,weatherlink.com 1.10,2013-05-05 20:32:00,
2013-05-05 15:47:00,59.4,57.0,29.85,North,355,1.0,2.0,91,0.00,,,0.51,weatherlink.com 1.10,2013-05-05 20:47:00,
2013-05-05 16:02:00,60.2,57.0,29.85,North,355,0.0,2.0,89,0.00,,,0.51,weatherlink.com 1.10,2013-05-05 21:02:00,
2013-05-05 16:17:00,59.9,56.0,29.84,North,355,0.0,2.0,88,0.00,,,0.51,weatherlink.com 1.10,2013-05-05 21:17:00,
2013-05-05 16:32:00,59.5,57.0,29.85,North,355,0.0,2.0,90,0.00,,,0.51,weatherlink.com 1.10,2013-05-05 21:32:00,
2013-05-05 16:47:00,59.5,56.0,29.85,North,355,0.0,2.0,89,0.00,,,0.51,weatherlink.com 1.10,2013-05-05 21:47:00,
2013-05-05 17:02:00,59.0,56.0,29.85,North,355,0.0,2.0,89,0.01,,,0.52,weatherlink.com 1.10,2013-05-05 22:02:00,
2013-05-05 17:17:00,58.8,56.0,29.85,NE,48,1.0,3.0,91,0.01,,,0.52,weatherlink.com 1.10,2013-05-05 22:17:00,
2013-05-05 17:32:00,58.4,56.0,29.85,NNE,22,1.0,4.0,90,0.01,,,0.52,weatherlink.com 1.10,2013-05-05 22:32:00,
2013-05-05 17:47:00,58.1,56.0,29.85,NNE,15,0.0,1.0,91,0.01,,,0.52,weatherlink.com 1.10,2013-05-05 22:47:00,
2013-05-05 18:02:00,58.0,55.0,29.85,NNE,15,0.0,1.0,91,0.00,,,0.52,weatherlink.com 1.10,2013-05-05 23:02:00,
2013-05-05 18:17:00,58.2,56.0,29.85,NNE,15,0.0,1.0,92,0.00,,,0.52,weatherlink.com 1.10,2013-05-05 23:17:00,
2013-05-05 18:32:00,58.2,55.0,29.86,NNE,15,2.0,3.0,90,0.00,,,0.52,weatherlink.com 1.10,2013-05-05 23:32:00,
2013-05-05 18:47:00,58.1,56.0,29.86,North,5,0.0,2.0,91,0.00,,,0.52,weatherlink.com 1.10,2013-05-05 23:47:00,
2013-05-05 19:02:00,57.8,55.0,29.86,North,5,0.0,1.0,91,0.00,,,0.52,weatherlink.com 1.10,2013-05-06 00:02:00,
2013-05-05 19:17:00,57.4,55.0,29.87,North,355,0.0,0.0,92,0.00,,,0.52,weatherlink.com 1.10,2013-05-06 00:17:00,
2013-05-05 19:32:00,57.2,55.0,29.87,North,355,0.0,1.0,92,0.00,,,0.52,weatherlink.com 1.10,2013-05-06 00:32:00,
2013-05-05 19:47:00,56.9,55.0,29.87,North,355,1.0,3.0,92,0.00,,,0.52,weatherlink.com 1.10,2013-05-06 00:47:00,
2013-05-05 20:02:00,56.6,55.0,29.87,North,355,0.0,2.0,93,0.00,,,0.52,weatherlink.com 1.10,2013-05-06 01:02:00,
2013-05-05 20:17:00,56.3,55.0,29.87,North,355,0.0,3.0,94,0.00,,,0.52,weatherlink.com 1.10,2013-05-06 01:17:00,
2013-05-05 20:32:00,-999.0,-99.9,29.88,North,-999,-999.0,-999.0,-999,0.00,,,0.52,weatherlink.com 1.10,2013-05-06 01:32:00,
2013-05-05 20:47:00,-999.0,-99.9,29.88,North,-999,-999.0,-999.0,-999,0.00,,,0.52,weatherlink.com 1.10,2013-05-06 01:47:00,
2013-05-05 21:02:00,-999.0,-99.9,29.88,North,-999,-999.0,-999.0,-999,0.00,,,0.52,weatherlink.com 1.10,2013-05-06 02:02:00,
2013-05-05 21:18:00,-999.0,-99.9,29.89,North,-999,-999.0,-999.0,-999,0.00,,,0.52,weatherlink.com 1.10,2013-05-06 02:18:00,
2013-05-05 21:33:00,-999.0,-99.9,29.89,North,-999,-999.0,-999.0,-999,0.00,,,0.52,weatherlink.com 1.10,2013-05-06 02:33:00,
2013-05-05 21:48:00,-999.0,-99.9,29.89,North,-999,-999.0,-999.0,-999,0.00,,,0.52,weatherlink.com 1.10,2013-05-06 02:48:00,
2013-05-05 22:03:00,-999.0,-99.9,29.89,North,-999,-999.0,-999.0,-999,0.00,,,0.52,weatherlink.com 1.10,2013-05-06 03:03:00,
2013-05-05 22:18:00,-999.0,-99.9,29.89,North,-999,-999.0,-999.0,-999,0.00,,,0.52,weatherlink.com 1.10,2013-05-06 03:18:00,
2013-05-05 22:33:00,-999.0,-99.9,29.89,North,-999,-999.0,-999.0,-999,0.00,,,0.52,weatherlink.com 1.10,2013-05-06 03:33:00,
2013-05-05 22:48:00,-999.0,-99.9,29.88,North,-999,-999.0,-999.0,-999,0.00,,,0.52,weatherlink.com 1.10,2013-05-06 03:48:00,
2013-05-05 23:03:00,-999.0,-99.9,29.89,North,-999,-999.0,-999.0,-999,0.00,,,0.52,weatherlink.com 1.10,2013-05-06 04:03:00,
2013-05-05 23:18:00,-999.0,-99.9,29.88,North,-999,-999.0,-999.0,-999,0.00,,,0.52,weatherlink.com 1.10,2013-05-06 04:18:00,
2013-05-05 23:33:00,-999.0,-99.9,29.88,North,-999,-999.0,-999.0,-999,0.00,,,0.52,weatherlink.com 1.10,2013-05-06 04:33:00,
2013-05-05 23:48:00,-999.0,-99.9,29.88,North,-999,-999.0,-999.0,-999,0.00,,,0.52,weatherlink.com 1.10,2013-05-06 04:48:00,